TimeEST,TemperatureF,Dew PointF,Humidity,Sea Level PressureIn,VisibilityMPH,Wind Direction,Wind SpeedMPH,Gust SpeedMPH,PrecipitationIn,Events,Conditions,WindDirDegrees,DateUTC
12:15 AM,55.4,55.4,100,29.93,2.0,Calm,Calm,-,N/A,,Overcast,0,2013-12-04 05:15:00
12:41 AM,55.4,55.4,100,29.93,1.5,East,3.5,-,N/A,,Overcast,90,2013-12-04 05:41:00
12:48 AM,55.4,55.4,100,29.93,1.0,Calm,Calm,-,N/A,,Overcast,0,2013-12-04 05:48:00
12:51 AM,55.9,55.0,97,29.93,0.8,Calm,Calm,-,N/A,,Overcast,0,2013-12-04 05:51:00
1:24 AM,55.4,55.4,100,29.93,1.5,Calm,Calm,-,0.06,Rain,Light Rain,0,2013-12-04 06:24:00
1:51 AM,55.9,55.0,97,29.93,2.0,Calm,Calm,-,0.06,,Overcast,0,2013-12-04 06:51:00
2:30 AM,55.4,55.4,100,29.94,1.8,Calm,Calm,-,N/A,,Overcast,0,2013-12-04 07:30:00
2:51 AM,55.9,55.0,97,29.94,1.8,Calm,Calm,-,N/A,,Overcast,0,2013-12-04 07:51:00
2:59 AM,55.4,55.4,100,29.94,2.0,Calm,Calm,-,N/A,,Overcast,0,2013-12-04 07:59:00
3:19 AM,55.4,55.4,100,29.94,1.8,Calm,Calm,-,N/A,,Overcast,0,2013-12-04 08:19:00
3:51 AM,55.9,55.0,97,29.94,1.5,Calm,Calm,-,N/A,,Overcast,0,2013-12-04 08:51:00
4:01 AM,55.4,55.4,100,29.94,2.0,Calm,Calm,-,N/A,,Overcast,0,2013-12-04 09:01:00
4:15 AM,55.4,55.4,100,29.93,1.5,East,3.5,-,N/A,,Overcast,80,2013-12-04 09:15:00
4:23 AM,55.4,55.4,100,29.94,1.2,Calm,Calm,-,0.00,Rain,Light Rain,0,2013-12-04 09:23:00
4:47 AM,55.4,55.4,100,29.94,0.5,Calm,Calm,-,0.00,Fog,Fog,0,2013-12-04 09:47:00
4:51 AM,55.9,55.0,97,29.94,0.5,Calm,Calm,-,0.00,Fog,Fog,0,2013-12-04 09:51:00
5:51 AM,55.9,55.0,97,29.96,0.2,Calm,Calm,-,N/A,Fog,Fog,0,2013-12-04 10:51:00
6:51 AM,55.9,55.0,97,29.99,0.2,Calm,Calm,-,N/A,Fog,Fog,0,2013-12-04 11:51:00
7:51 AM,55.0,55.0,100,30.00,0.2,Calm,Calm,-,N/A,Fog,Fog,0,2013-12-04 12:51:00
8:51 AM,55.9,55.9,100,30.02,0.2,Calm,Calm,-,N/A,Fog,Fog,0,2013-12-04 13:51:00
9:51 AM,57.9,57.9,100,30.05,0.2,Calm,Calm,-,N/A,Fog,Fog,0,2013-12-04 14:51:00
10:51 AM,60.1,60.1,100,30.05,0.5,South,3.5,-,N/A,Fog,Fog,190,2013-12-04 15:51:00
11:07 AM,60.8,60.8,100,30.05,0.8,Calm,Calm,-,N/A,,Overcast,0,2013-12-04 16:07:00
11:18 AM,60.8,60.8,100,30.05,1.2,Calm,Calm,-,N/A,,Overcast,0,2013-12-04 16:18:00
11:24 AM,60.8,60.8,100,30.04,2.0,South,4.6,-,N/A,,Overcast,170,2013-12-04 16:24:00
11:51 AM,62.1,61.0,96,30.03,3.0,Calm,Calm,-,N/A,,Overcast,0,2013-12-04 16:51:00
12:09 PM,62.6,60.8,94,30.02,4.0,Variable,3.5,-,N/A,,Overcast,0,2013-12-04 17:09:00
12:27 PM,62.6,60.8,94,30.02,5.0,SW,5.8,-,N/A,,Overcast,220,2013-12-04 17:27:00
12:51 PM,64.0,61.0,90,30.00,5.0,Variable,3.5,-,N/A,,Overcast,0,2013-12-04 17:51:00
1:04 PM,66.2,62.6,88,30.00,6.0,Calm,Calm,-,N/A,,Haze,0,2013-12-04 18:04:00
1:36 PM,68.0,62.6,83,29.99,7.0,Calm,Calm,-,N/A,,Overcast,0,2013-12-04 18:36:00
1:46 PM,69.8,62.6,78,29.98,7.0,Calm,Calm,-,N/A,,Mostly Cloudy,0,2013-12-04 18:46:00
1:51 PM,69.1,62.1,78,29.97,8.0,South,5.8,-,N/A,,Mostly Cloudy,170,2013-12-04 18:51:00
2:20 PM,69.8,62.6,78,29.97,8.0,South,4.6,-,N/A,,Mostly Cloudy,180,2013-12-04 19:20:00
2:29 PM,69.8,62.6,78,29.97,8.0,SSE,5.8,-,N/A,,Mostly Cloudy,160,2013-12-04 19:29:00
2:36 PM,69.8,62.6,78,29.97,8.0,Variable,4.6,-,N/A,,Scattered Clouds,0,2013-12-04 19:36:00
2:51 PM,69.1,62.1,78,29.97,8.0,SSE,4.6,-,N/A,,Mostly Cloudy,160,2013-12-04 19:51:00
3:51 PM,69.1,62.1,78,29.97,8.0,South,4.6,-,N/A,,Mostly Cloudy,170,2013-12-04 20:51:00
4:03 PM,68.0,60.8,78,29.98,8.0,SSE,4.6,-,N/A,,Scattered Clouds,160,2013-12-04 21:03:00
4:51 PM,66.0,62.1,87,29.99,6.0,SSE,5.8,-,N/A,,Partly Cloudy,160,2013-12-04 21:51:00
5:51 PM,64.9,61.0,87,30.00,7.0,SSE,4.6,-,N/A,,Partly Cloudy,160,2013-12-04 22:51:00
6:51 PM,64.0,61.0,90,30.02,7.0,SSE,5.8,-,N/A,,Partly Cloudy,160,2013-12-04 23:51:00
7:51 PM,62.1,61.0,96,30.03,5.0,South,4.6,-,N/A,,Partly Cloudy,170,2013-12-05 00:51:00
8:35 PM,62.6,60.8,94,30.04,5.0,South,6.9,-,N/A,,Overcast,170,2013-12-05 01:35:00
8:51 PM,62.1,61.0,96,30.04,5.0,South,5.8,-,N/A,,Overcast,170,2013-12-05 01:51:00
8:58 PM,62.6,60.8,94,30.05,5.0,South,5.8,-,N/A,,Overcast,180,2013-12-05 01:58:00
9:38 PM,62.6,60.8,94,30.05,5.0,SSE,3.5,-,N/A,,Overcast,160,2013-12-05 02:38:00
9:51 PM,62.1,61.0,96,30.04,5.0,Calm,Calm,-,N/A,,Overcast,0,2013-12-05 02:51:00
10:51 PM,63.0,61.0,93,30.05,6.0,South,3.5,-,N/A,,Overcast,170,2013-12-05 03:51:00
11:25 PM,62.6,60.8,94,30.07,2.0,South,5.8,-,0.01,Rain,Rain,180,2013-12-05 04:25:00
11:27 PM,62.6,60.8,94,30.07,1.8,South,5.8,-,0.02,Rain,Rain,180,2013-12-05 04:27:00
11:39 PM,62.6,60.8,94,30.07,2.0,Variable,3.5,-,0.09,Rain,Light Rain,0,2013-12-05 04:39:00
11:47 PM,62.6,60.8,94,30.06,5.0,South,5.8,-,0.09,Rain,Light Rain,170,2013-12-05 04:47:00
11:51 PM,62.1,61.0,96,30.06,6.0,South,4.6,-,0.09,,Overcast,170,2013-12-05 04:51:00